Regional Weather Roundup
Issued by NWS

Home | Current Version | Previous Version | Graphics & Text | Print | Product List | Glossary On
Versions: 1 2 3 4 5 6 7 8 9 10 11 12 13 14 15 16 17 18 19 20 21 22 23 24 25 26 27 28 29 30 31 32 33 34 35 36 37 38 39 40 41 42 43 44 45 46 47 48 49 50
000
ASUS45 KBOU 040407
RWRCO

WEATHER ROUNDUP FOR COLORADO
NATIONAL WEATHER SERVICE DENVER/BOULDER CO
1000 PM MDT SUN MAY 03 2015

NOTE: "FAIR" INDICATES FEW OR NO CLOUDS BELOW 12000 FEET WITH NO
SIGNIFICANT WEATHER AND/OR OBSTRUCTIONS TO VISIBILITY.

COZ001>005-013-030-031-040500-
...NORTHWEST COLORADO...

CITY           SKY/WX    TMP DP  RH WIND       PRES   REMARKS
CRAIG          LGT RAIN  54  40  59 S6        30.08R
HAYDEN         CLOUDY    52  36  54 SW6       30.08R
MEEKER         RAIN      49  44  83 E12       30.12R
MOUNT WERNER   NOT AVBL
STEAMBOAT SPGS CLOUDY    49  38  64 E3        30.10R
WALDEN         CLOUDY    41  34  75 W6        30.15R
$$

COZ006>008-011-040500-
...WEST CENTRAL VALLEYS...

CITY           SKY/WX    TMP DP  RH WIND       PRES   REMARKS
GRAND JUNCTION CLOUDY    59  42  53 SE5       30.00R
MONTROSE       CLOUDY    54  39  57 SE5       30.08R
EAGLE          CLOUDY    48  45  87 S3        30.13R
RIFLE          CLOUDY    58  40  51 W9        30.06R
DELTA          CLOUDY    58  47  65 E8        30.04R
NUCLA          CLOUDY    59  36  41 E7        30.07R
$$

COZ017>023-064>068-040500-
...SOUTHWEST COLORADO...

CITY           SKY/WX    TMP DP  RH WIND       PRES   REMARKS
DURANGO        MOCLDY    53  39  59 E8        30.10R
CORTEZ         CLEAR     53  38  56 CALM      30.04R
PAGOSA SPRINGS MOCLDY    44  40  88 CALM      30.16S
TELLURIDE      MOCLDY    41  38  89 SE7       30.21R
WOLF CREEK PAS NOT AVBL
$$

COZ009-010-012-014-032>034-037-058>063-040500-
...CENTRAL COLORADO...

CITY           SKY/WX    TMP DP  RH WIND       PRES   REMARKS
ASPEN          CLOUDY    44  38  79 S3        30.13R
BUENA VISTA    NOT AVBL
COPPER MTN     CLOUDY    36  32  87 SE7       30.31S
BERTHOUD PASS  HAZE      28  21  74 E18G26    30.35R VSB<1/4 WCI  16
COTTONWOOD PAS CLOUDY    45  32  61 CALM      30.24R
GUNNISON       CLOUDY    43  36  75 W7        30.22S
KREMMLING      CLOUDY    50  36  57 S9        30.12S
LEADVILLE      CLOUDY    37  31  78 NW3       30.22R
MONARCH PASS   LGT SNOW  32  30  93 W14       30.43R WCI  22
SALIDA         CLOUDY    50  38  63 W9        30.21R
SUNLIGHT       CLOUDY    37  34  87 NW3       30.30R
WILKERSON PASS CLOUDY    34  32  93 CALM      30.33R
$$

COZ069>075-040500-
...SAN LUIS VALLEY/SANGRE DE CRISTO MOUNTAINS...

CITY           SKY/WX    TMP DP  RH WIND       PRES   REMARKS
ALAMOSA        CLOUDY    49  38  65 SW12      30.12S
LA VETA PASS   CLOUDY    39  32  75 MISG      30.25R
SAGUACHE       CLOUDY    45  36  70 N10       30.16S
$$

COZ035-036-038>040-040500-
...NORTHERN COLORADO FRONT RANGE...

CITY           SKY/WX    TMP DP  RH WIND       PRES   REMARKS
DENVER INTL AP PTCLDY    50  45  83 SE7       30.07R
DMNS CITY PARK   N/A     53  43  68 S2        30.10R
AURORA         MOCLDY    49  45  87 S7        30.10R
FRONT RANGE AP NOT AVBL
ERIE MUNI ARPT PTCLDY    51  46  82 CALM      30.09R
BOULDER MUN AP CLOUDY    54  46  76 CALM      30.09R
CENTENNIAL     MOCLDY    49  44  83 SW5       30.11R
BROOMFIELD     MOCLDY    55  45  67 CALM      30.11R
FORT COLLINS   PTCLDY    54  45  71 CALM      30.10R
LONGMONT       PTCLDY    53  47  80 CALM      30.11R
$$

COZ041-046-047-076>085-087-088-040500-
...PIKES PEAK/PALMER DIVIDE AND SOUTHERN FOOTHILLS...

CITY           SKY/WX    TMP DP  RH WIND       PRES   REMARKS
COLO. SPRINGS  MOCLDY    52  41  66 N16       30.10R
A. F. ACADEMY  MOCLDY    50  41  70 N12       30.12R
ELLICOTT       CLOUDY     1  32 100 NE17      30.08R WCI -19
FALCON         CLOUDY    48  40  72 N14G21    30.13R
FORT CARSON    CLOUDY    54  41  62 N15       30.08R
LIMON          CLOUDY    54  43  66 NE9       30.07R
MONUMENT HILL  CLOUDY    43  41  93 NE5       30.14R
TRINIDAD       PTCLDY    53  39  59 W8        30.04R
$$

COZ042>045-048>051-090-091-040500-
...NORTHEAST COLORADO...

CITY           SKY/WX    TMP DP  RH WIND       PRES   REMARKS
GREELEY ARPT   PTCLDY    50  43  76 W9        30.08R
AKRON          CLOUDY    56  47  71 N6        30.03F
BURLINGTON     LGT RAIN  57  51  80 W17       30.05R
WRAY           CLOUDY    64  41  42 N15       29.99R
STERLING       CLOUDY    63  43  48 NE7       30.01S
HOLYOKE        NOT AVBL
FORT MORGAN    LGT RAIN  54 -10   7 N12       30.02F
$$

COZ086-089-092>099-040500-
...SOUTHEAST COLORADO...

CITY           SKY/WX    TMP DP  RH WIND       PRES   REMARKS
PUEBLO         MOCLDY    59  42  53 N21G29    30.02R
LA JUNTA       CLOUDY    63  49  60 S6        29.95R
LAMAR          CLOUDY    66  46  48 E10       29.93R
SPRINGFIELD      N/A     61  45  55 SW8       29.96R
$$


USA.gov is the U.S. government's official web portal to all federal, state and local government web resources and services.